User: anonymous   Login
Location: Unspecified
(0.0000°N, 0.0000°E)
Time: 01:08:37
(UTC+00:00)
Language:

COSMOS 2472 - Orbit

View from above orbital plane
View from above orbital plane
View from above satellite
View from above satellite

Ground track
Ground track

The orbit data is extracted from the following two-line orbital elements,

1 37726U 11028A   11297.81469757  .00524004 -98090-6  26589-3 0  3966
2 37726 081.3639 024.2688 0031425 222.5519 288.1812 16.19286169 19186
Epoch (UTC): 24 October 2011 19:33:09
Eccentricity: 0.0031425
inclination: 81.3639°
perigee height: 201 km
apogee height: 242 km
right ascension of ascending node: 24.2688°
argument of perigee: 222.5519°
revolutions per day: 16.19286169
mean anomaly at epoch: 288.1812°
orbit number at epoch: 1918

The dashed part of the orbit path shows where the satellite is in the earth's shadow,  

DLR